This is the latest recevied weather packets stored in our database for station/object KF5JED-13. If no packets are shown the sender has not sent any weather packets the latest 10 day(s).
| Time | Temp. | Humidity | Pressure | Rain* | Wind** | Luminosity | Snow |
|---|---|---|---|---|---|---|---|
| 1777995330 | 13.89° C | 48% | 1010.4 hPa | 0 mm | - | 426 W/m² | - |
| 1777995026 | 13.89° C | 48% | 1010.4 hPa | 0 mm | - | 550 W/m² | - |
| 1777994723 | 13.33° C | 49% | 1010.3 hPa | 0 mm | - | 355 W/m² | - |
| 1777994114 | 13.33° C | 49% | 1010 hPa | 0 mm | - | 310 W/m² | - |
| 1777993812 | 13.89° C | 47% | 1010.1 hPa | 0 mm | - | 392 W/m² | - |
| 1777993508 | 12.78° C | 49% | 1010.2 hPa | 0 mm | - | 303 W/m² | - |
| 1777992901 | 12.78° C | 48% | 1009.8 hPa | 0 mm | - | 239 W/m² | - |
| 1777992599 | 12.78° C | 49% | 1010 hPa | 0 mm | - | 252 W/m² | - |
| 1777991994 | 13.33° C | 48% | 1009.9 hPa | 0 mm | - | 296 W/m² | - |
| 1777991691 | 12.78° C | 48% | 1010.1 hPa | 0 mm | - | 326 W/m² | - |
| 1777991388 | 12.78° C | 49% | 1010.2 hPa | 0 mm | - | 201 W/m² | - |
| 1777991085 | 12.78° C | 49% | 1009.9 hPa | 0 mm | - | 322 W/m² | - |
| 1777990783 | 12.22° C | 50% | 1009.9 hPa | 0 mm | - | 299 W/m² | - |
| 1777990480 | 12.22° C | 50% | 1010.1 hPa | 0 mm | - | 282 W/m² | - |
| 1777989873 | 11.67° C | 51% | 1009.9 hPa | 0 mm | - | 258 W/m² | - |
| 1777989570 | 12.22° C | 51% | 1010 hPa | 0 mm | - | 141 W/m² | - |
| 1777988356 | 11.67° C | 52% | 1009.7 hPa | 0 mm | - | 148 W/m² | - |
| 1777988054 | 11.67° C | 52% | 1009.4 hPa | 0 mm | - | 104 W/m² | - |
| 1777987749 | 11.67° C | 52% | 1009.1 hPa | 0 mm | - | 140 W/m² | - |
| 1777987446 | 11.67° C | 53% | 1008.9 hPa | 0 mm | - | 117 W/m² | - |
| 1777986840 | 11.67° C | 54% | 1008.4 hPa | 0 mm | - | 89 W/m² | - |
| 1777986538 | 11.67° C | 53% | 1008.3 hPa | 0 mm | - | 81 W/m² | - |
| 1777986236 | 11.67° C | 53% | 1008.3 hPa | 0 mm | - | 73 W/m² | - |
| 1777985933 | 11.67° C | 53% | 1008.4 hPa | 0 mm | - | 66 W/m² | - |
| 1777984720 | 12.22° C | 54% | 1007.8 hPa | 0 mm | - | 31 W/m² | - |
* Rain latest hour (hover to see other rain measurements)
** Current wind speed in m/s (hover to see current wind gust speed)